Time,TemperatureF,DewpointF,PressureIn,WindDirection,WindDirectionDegrees,WindSpeedMPH,WindSpeedGustMPH,Humidity,HourlyPrecipIn,Conditions,Clouds,dailyrainin,SoftwareType,DateUTC
2013-05-07 13:25:00,57.2,57.2,29.96,NNE,22,5.0,9.0,100,0.16,,---,0.53,VWS V14.01,2013-05-07 17:25:00,
2013-05-07 13:49:00,57.0,57.0,29.95,NNE,32,5.0,5.0,100,0.16,,---,0.58,VWS V14.01,2013-05-07 17:49:00,
2013-05-07 13:50:00,57.0,57.0,29.95,NNE,32,4.0,5.0,100,0.16,,---,0.58,VWS V14.01,2013-05-07 17:50:00,
2013-05-07 13:54:00,56.9,56.9,29.95,NE,56,1.0,2.0,100,0.15,,---,0.59,VWS V14.01,2013-05-07 17:54:00,
2013-05-07 13:55:00,56.9,56.9,29.95,NE,56,0.0,2.0,100,0.16,,---,0.60,VWS V14.01,2013-05-07 17:55:00,
2013-05-07 13:59:00,56.9,56.9,29.95,ENE,65,5.0,5.0,100,0.16,,---,0.61,VWS V14.01,2013-05-07 17:59:00,
2013-05-07 14:00:00,56.9,56.9,29.95,ENE,65,4.0,5.0,100,0.16,,---,0.61,VWS V14.01,2013-05-07 18:00:00,
2013-05-07 14:04:00,56.9,56.9,29.95,NE,56,0.0,1.0,100,0.18,,---,0.64,VWS V14.01,2013-05-07 18:04:00,
2013-05-07 14:05:00,56.7,56.7,29.95,NE,56,0.0,1.0,100,0.18,,---,0.64,VWS V14.01,2013-05-07 18:05:00,
2013-05-07 14:09:00,56.7,56.7,29.95,NE,38,1.0,3.0,100,0.20,,---,0.67,VWS V14.01,2013-05-07 18:09:00,
2013-05-07 14:10:00,56.7,56.7,29.95,NE,38,0.0,3.0,100,0.20,,---,0.67,VWS V14.01,2013-05-07 18:10:00,
2013-05-07 14:15:00,56.7,56.7,29.95,NNE,27,3.0,3.0,100,0.21,,---,0.69,VWS V14.01,2013-05-07 18:15:00,
2013-05-07 14:20:00,56.7,56.7,29.94,East,82,4.0,4.0,100,0.20,,---,0.70,VWS V14.01,2013-05-07 18:20:00,
2013-05-07 14:25:00,56.7,56.7,29.94,NNW,346,4.0,4.0,100,0.21,,---,0.72,VWS V14.01,2013-05-07 18:25:00,
2013-05-07 14:30:00,56.7,56.7,29.94,NW,315,1.0,5.0,100,0.15,,---,0.74,VWS V14.01,2013-05-07 18:30:00,
2013-05-07 14:35:00,56.7,56.7,29.93,NNE,17,5.0,6.0,100,0.17,,---,0.75,VWS V14.01,2013-05-07 18:35:00,
2013-05-07 14:40:00,56.7,56.7,29.93,NNE,17,3.0,3.0,100,0.19,,---,0.77,VWS V14.01,2013-05-07 18:40:00,
2013-05-07 14:41:00,56.7,56.7,29.93,ENE,72,6.0,7.0,100,0.19,,---,0.77,VWS V14.01,2013-05-07 18:41:00,
2013-05-07 14:45:00,56.7,56.7,29.93,NNE,14,3.0,5.0,100,0.21,,---,0.79,VWS V14.01,2013-05-07 18:45:00,
2013-05-07 14:46:00,56.7,56.7,29.93,NNE,14,0.0,5.0,100,0.21,,---,0.79,VWS V14.01,2013-05-07 18:46:00,
2013-05-07 14:50:00,56.7,56.7,29.93,NE,43,3.0,3.0,100,0.23,,---,0.81,VWS V14.01,2013-05-07 18:50:00,
2013-05-07 14:51:00,56.7,56.7,29.93,East,87,1.0,3.0,100,0.23,,---,0.81,VWS V14.01,2013-05-07 18:51:00,
2013-05-07 14:55:00,56.7,56.7,29.93,ENE,62,6.0,6.0,100,0.23,,---,0.83,VWS V14.01,2013-05-07 18:55:00,
2013-05-07 14:56:00,56.7,56.7,29.93,ENE,73,4.0,6.0,100,0.23,,---,0.83,VWS V14.01,2013-05-07 18:56:00,
2013-05-07 15:00:00,56.7,56.7,29.93,NE,44,3.0,3.0,100,0.25,,---,0.86,VWS V14.01,2013-05-07 19:00:00,
2013-05-07 15:01:00,56.7,56.7,29.93,NE,44,4.0,4.0,100,0.26,,---,0.87,VWS V14.01,2013-05-07 19:01:00,
2013-05-07 15:05:00,56.9,56.9,29.92,NE,55,2.0,4.0,100,0.25,,---,0.89,VWS V14.01,2013-05-07 19:05:00,
2013-05-07 15:06:00,56.9,56.9,29.92,ENE,69,7.0,7.0,100,0.25,,---,0.89,VWS V14.01,2013-05-07 19:06:00,
2013-05-07 15:10:00,57.0,57.0,29.92,NE,35,4.0,5.0,100,0.23,,---,0.90,VWS V14.01,2013-05-07 19:10:00,
2013-05-07 15:11:00,57.0,57.0,29.92,North,9,2.0,7.0,100,0.23,,---,0.90,VWS V14.01,2013-05-07 19:11:00,
2013-05-07 15:15:00,57.0,57.0,29.92,NE,44,6.0,12.0,100,0.22,,---,0.91,VWS V14.01,2013-05-07 19:15:00,
2013-05-07 15:16:00,57.0,57.0,29.92,NE,48,4.0,4.0,100,0.22,,---,0.91,VWS V14.01,2013-05-07 19:16:00,
2013-05-07 15:20:00,57.2,57.2,29.92,ENE,57,5.0,7.0,100,0.22,,---,0.92,VWS V14.01,2013-05-07 19:20:00,
2013-05-07 15:21:00,57.2,57.2,29.92,ENE,57,1.0,7.0,100,0.22,,---,0.92,VWS V14.01,2013-05-07 19:21:00,
2013-05-07 15:25:00,57.3,57.3,29.92,ENE,76,9.0,10.0,100,0.20,,---,0.92,VWS V14.01,2013-05-07 19:25:00,
2013-05-07 15:26:00,57.5,57.5,29.92,ESE,106,2.0,3.0,100,0.20,,---,0.92,VWS V14.01,2013-05-07 19:26:00,
2013-05-07 15:30:00,57.5,57.5,29.92,ENE,57,4.0,4.0,100,0.19,,---,0.92,VWS V14.01,2013-05-07 19:30:00,
2013-05-07 15:31:00,57.6,57.6,29.92,ENE,57,1.0,2.0,100,0.18,,---,0.92,VWS V14.01,2013-05-07 19:31:00,
2013-05-07 15:36:00,57.8,57.8,29.92,ENE,61,2.0,5.0,100,0.18,,---,0.93,VWS V14.01,2013-05-07 19:36:00,
2013-05-07 15:41:00,58.0,58.0,29.92,NE,54,10.0,10.0,100,0.16,,---,0.93,VWS V14.01,2013-05-07 19:41:00,
2013-05-07 15:46:00,58.0,58.0,29.92,NE,56,5.0,5.0,100,0.14,,---,0.93,VWS V14.01,2013-05-07 19:46:00,
2013-05-07 15:51:00,58.3,58.3,29.92,NE,53,2.0,2.0,100,0.12,,---,0.93,VWS V14.01,2013-05-07 19:51:00,
2013-05-07 15:56:00,58.7,58.7,29.92,NE,53,3.0,4.0,100,0.10,,---,0.93,VWS V14.01,2013-05-07 19:56:00,
2013-05-07 16:01:00,58.7,58.7,29.92,ENE,64,2.0,3.0,100,0.06,,---,0.93,VWS V14.01,2013-05-07 20:01:00,
2013-05-07 16:06:00,58.9,58.9,29.92,ENE,72,2.0,3.0,100,0.04,,---,0.93,VWS V14.01,2013-05-07 20:06:00,
2013-05-07 16:07:00,58.9,58.9,29.92,ENE,69,3.0,5.0,100,0.04,,---,0.93,VWS V14.01,2013-05-07 20:07:00,
2013-05-07 16:11:00,58.9,58.9,29.92,NE,51,0.0,2.0,100,0.03,,---,0.93,VWS V14.01,2013-05-07 20:11:00,
2013-05-07 16:12:00,58.9,58.9,29.92,NE,51,2.0,2.0,100,0.03,,---,0.93,VWS V14.01,2013-05-07 20:12:00,
2013-05-07 16:16:00,58.9,58.9,29.92,North,360,2.0,5.0,100,0.02,,---,0.93,VWS V14.01,2013-05-07 20:16:00,
2013-05-07 16:17:00,59.0,59.0,29.90,NE,42,4.0,4.0,100,0.02,,---,0.93,VWS V14.01,2013-05-07 20:17:00,
2013-05-07 16:21:00,59.0,59.0,29.90,NE,45,4.0,5.0,100,0.01,,---,0.93,VWS V14.01,2013-05-07 20:21:00,
2013-05-07 16:22:00,59.0,59.0,29.90,NE,46,4.0,4.0,100,0.01,,---,0.93,VWS V14.01,2013-05-07 20:22:00,
2013-05-07 16:26:00,59.2,59.2,29.90,NE,53,4.0,4.0,100,0.01,,---,0.93,VWS V14.01,2013-05-07 20:26:00,
2013-05-07 16:27:00,59.2,59.2,29.90,NE,51,5.0,5.0,100,0.01,,---,0.93,VWS V14.01,2013-05-07 20:27:00,
2013-05-07 16:31:00,59.2,59.2,29.90,NE,49,8.0,8.0,100,0.01,,---,0.93,VWS V14.01,2013-05-07 20:31:00,
2013-05-07 16:32:00,59.2,59.2,29.90,NE,49,4.0,8.0,100,0.01,,---,0.93,VWS V14.01,2013-05-07 20:32:00,
2013-05-07 16:36:00,59.0,59.0,29.90,NE,36,1.0,3.0,100,0.00,,---,0.93,VWS V14.01,2013-05-07 20:36:00,
2013-05-07 16:37:00,59.0,59.0,29.90,NE,36,0.0,3.0,100,0.00,,---,0.93,VWS V14.01,2013-05-07 20:37:00,
2013-05-07 16:41:00,59.0,59.0,29.90,North,5,4.0,7.0,100,0.00,,---,0.93,VWS V14.01,2013-05-07 20:41:00,
2013-05-07 16:42:00,59.0,59.0,29.90,NE,38,4.0,7.0,100,0.00,,---,0.93,VWS V14.01,2013-05-07 20:42:00,
2013-05-07 16:46:00,59.0,59.0,29.90,NE,40,1.0,6.0,100,0.00,,---,0.93,VWS V14.01,2013-05-07 20:46:00,
2013-05-07 16:47:00,59.0,59.0,29.90,NE,40,2.0,6.0,100,0.00,,---,0.93,VWS V14.01,2013-05-07 20:47:00,
2013-05-07 16:51:00,58.9,58.9,29.90,NE,53,4.0,4.0,100,0.00,,---,0.93,VWS V14.01,2013-05-07 20:51:00,
2013-05-07 16:52:00,58.9,58.9,29.90,NE,54,2.0,4.0,100,0.00,,---,0.93,VWS V14.01,2013-05-07 20:52:00,
2013-05-07 16:56:00,58.9,58.9,29.90,ENE,63,3.0,4.0,100,0.00,,---,0.93,VWS V14.01,2013-05-07 20:56:00,
2013-05-07 16:57:00,58.9,58.9,29.90,NNE,32,4.0,4.0,100,0.00,,---,0.93,VWS V14.01,2013-05-07 20:57:00,
2013-05-07 17:02:00,58.9,58.9,29.90,NE,47,5.0,5.0,100,0.01,,---,0.94,VWS V14.01,2013-05-07 21:02:00,
2013-05-07 17:07:00,58.9,58.9,29.90,ENE,62,6.0,10.0,100,0.04,,---,0.97,VWS V14.01,2013-05-07 21:07:00,
2013-05-07 17:12:00,58.9,58.9,29.90,NE,54,5.0,5.0,100,0.05,,---,0.98,VWS V14.01,2013-05-07 21:12:00,
2013-05-07 17:17:00,59.0,59.0,29.89,ENE,65,5.0,6.0,100,0.05,,---,0.98,VWS V14.01,2013-05-07 21:17:00,
2013-05-07 17:22:00,59.0,59.0,29.89,NE,55,6.0,7.0,100,0.05,,---,0.98,VWS V14.01,2013-05-07 21:22:00,
2013-05-07 17:27:00,59.2,59.2,29.89,ENE,67,1.0,4.0,100,0.05,,---,0.98,VWS V14.01,2013-05-07 21:27:00,
2013-05-07 17:28:00,59.2,59.2,29.89,ENE,68,4.0,4.0,100,0.05,,---,0.98,VWS V14.01,2013-05-07 21:28:00,
2013-05-07 17:32:00,59.2,59.2,29.89,ENE,67,5.0,12.0,100,0.05,,---,0.98,VWS V14.01,2013-05-07 21:32:00,
2013-05-07 17:33:00,59.2,59.2,29.89,ENE,61,6.0,12.0,100,0.05,,---,0.98,VWS V14.01,2013-05-07 21:33:00,
2013-05-07 17:37:00,59.2,59.2,29.89,NE,46,4.0,6.0,100,0.06,,---,0.99,VWS V14.01,2013-05-07 21:37:00,
2013-05-07 17:38:00,59.2,59.2,29.89,East,87,5.0,6.0,100,0.06,,---,0.99,VWS V14.01,2013-05-07 21:38:00,
2013-05-07 17:42:00,59.2,59.2,29.89,ENE,70,0.0,2.0,100,0.06,,---,0.99,VWS V14.01,2013-05-07 21:42:00,
2013-05-07 17:43:00,59.2,59.2,29.89,ENE,70,2.0,3.0,100,0.06,,---,0.99,VWS V14.01,2013-05-07 21:43:00,
2013-05-07 17:47:00,59.2,59.2,29.89,East,85,4.0,5.0,100,0.06,,---,0.99,VWS V14.01,2013-05-07 21:47:00,
2013-05-07 17:48:00,59.2,59.2,29.89,East,84,0.0,6.0,100,0.06,,---,0.99,VWS V14.01,2013-05-07 21:48:00,
2013-05-07 17:52:00,59.2,59.2,29.89,East,84,1.0,1.0,100,0.06,,---,0.99,VWS V14.01,2013-05-07 21:52:00,
2013-05-07 17:53:00,59.2,59.2,29.89,East,84,2.0,2.0,100,0.06,,---,0.99,VWS V14.01,2013-05-07 21:53:00,
2013-05-07 17:57:00,59.3,59.3,29.89,ENE,76,6.0,9.0,100,0.07,,---,1.00,VWS V14.01,2013-05-07 21:57:00,
2013-05-07 17:58:00,59.3,59.3,29.89,NE,54,3.0,5.0,100,0.07,,---,1.00,VWS V14.01,2013-05-07 21:58:00,
2013-05-07 18:02:00,59.3,59.3,29.89,NE,54,6.0,10.0,100,0.07,,---,1.01,VWS V14.01,2013-05-07 22:02:00,
2013-05-07 18:03:00,59.3,59.3,29.89,ENE,68,3.0,5.0,100,0.07,,---,1.01,VWS V14.01,2013-05-07 22:03:00,
2013-05-07 18:07:00,59.3,59.3,29.89,NE,56,1.0,4.0,100,0.06,,---,1.02,VWS V14.01,2013-05-07 22:07:00,
2013-05-07 18:08:00,59.3,59.3,29.89,NE,56,1.0,4.0,100,0.06,,---,1.02,VWS V14.01,2013-05-07 22:08:00,
2013-05-07 18:12:00,59.3,59.3,29.89,NNE,30,0.0,3.0,100,0.06,,---,1.04,VWS V14.01,2013-05-07 22:12:00,
2013-05-07 18:13:00,59.3,59.3,29.89,NNE,30,0.0,3.0,100,0.06,,---,1.04,VWS V14.01,2013-05-07 22:13:00,
2013-05-07 18:18:00,59.3,59.3,29.89,NE,40,6.0,10.0,100,0.06,,---,1.04,VWS V14.01,2013-05-07 22:18:00,
2013-05-07 18:23:00,59.3,59.3,29.89,ENE,65,4.0,11.0,100,0.06,,---,1.04,VWS V14.01,2013-05-07 22:23:00,
2013-05-07 18:24:00,59.3,59.3,29.89,ENE,78,3.0,3.0,100,0.06,,---,1.04,VWS V14.01,2013-05-07 22:24:00,
2013-05-07 18:28:00,59.3,59.3,29.89,ENE,67,6.0,14.0,100,0.06,,---,1.04,VWS V14.01,2013-05-07 22:28:00,
2013-05-07 18:29:00,59.5,59.5,29.89,NE,39,11.0,11.0,100,0.06,,---,1.04,VWS V14.01,2013-05-07 22:29:00,
2013-05-07 18:33:00,59.5,59.5,29.88,NE,56,4.0,10.0,100,0.07,,---,1.05,VWS V14.01,2013-05-07 22:33:00,
2013-05-07 18:34:00,59.5,59.5,29.88,NE,56,3.0,5.0,100,0.07,,---,1.05,VWS V14.01,2013-05-07 22:34:00,
2013-05-07 18:38:00,59.5,59.5,29.88,ENE,65,2.0,3.0,100,0.06,,---,1.05,VWS V14.01,2013-05-07 22:38:00,
2013-05-07 18:39:00,59.5,59.5,29.88,East,80,5.0,5.0,100,0.06,,---,1.05,VWS V14.01,2013-05-07 22:39:00,
2013-05-07 18:43:00,59.6,59.6,29.88,ENE,72,9.0,9.0,100,0.06,,---,1.05,VWS V14.01,2013-05-07 22:43:00,
2013-05-07 18:44:00,59.6,59.6,29.88,NE,44,9.0,9.0,100,0.06,,---,1.05,VWS V14.01,2013-05-07 22:44:00,
2013-05-07 18:48:00,59.6,59.6,29.88,NE,51,2.0,6.0,100,0.06,,---,1.05,VWS V14.01,2013-05-07 22:48:00,
2013-05-07 18:49:00,59.6,59.6,29.88,ENE,76,2.0,2.0,100,0.06,,---,1.05,VWS V14.01,2013-05-07 22:49:00,
2013-05-07 18:53:00,59.6,59.6,29.88,East,79,5.0,5.0,100,0.06,,---,1.05,VWS V14.01,2013-05-07 22:53:00,
2013-05-07 18:54:00,59.6,59.6,29.88,NNE,24,0.0,1.0,100,0.06,,---,1.05,VWS V14.01,2013-05-07 22:54:00,
2013-05-07 18:55:00,59.6,59.6,29.88,ENE,59,3.0,7.0,100,0.06,,---,1.05,VWS V14.01,2013-05-07 22:55:00,
2013-05-07 18:58:00,59.6,59.6,29.88,ENE,59,6.0,10.0,100,0.05,,---,1.05,VWS V14.01,2013-05-07 22:58:00,
2013-05-07 18:59:00,59.6,59.6,29.88,East,80,4.0,4.0,100,0.04,,---,1.05,VWS V14.01,2013-05-07 22:59:00,
2013-05-07 19:00:00,59.6,59.6,29.88,NE,49,4.0,6.0,100,0.04,,---,1.05,VWS V14.01,2013-05-07 23:00:00,
2013-05-07 19:03:00,59.6,59.6,29.89,NE,50,4.0,7.0,100,0.04,,---,1.05,VWS V14.01,2013-05-07 23:03:00,
2013-05-07 19:04:00,59.6,59.6,29.89,ENE,63,8.0,8.0,100,0.04,,---,1.05,VWS V14.01,2013-05-07 23:04:00,
2013-05-07 19:05:00,59.6,59.6,29.89,NE,51,11.0,11.0,100,0.04,,---,1.05,VWS V14.01,2013-05-07 23:05:00,
2013-05-07 19:08:00,59.6,59.6,29.89,ENE,57,2.0,4.0,100,0.03,,---,1.05,VWS V14.01,2013-05-07 23:08:00,
2013-05-07 19:09:00,59.6,59.6,29.89,ENE,57,0.0,0.0,100,0.02,,---,1.05,VWS V14.01,2013-05-07 23:09:00,
2013-05-07 19:10:00,59.6,59.6,29.89,NE,46,4.0,5.0,100,0.02,,---,1.05,VWS V14.01,2013-05-07 23:10:00,
2013-05-07 19:13:00,59.6,59.6,29.89,NNE,22,2.0,4.0,100,0.01,,---,1.05,VWS V14.01,2013-05-07 23:13:00,
2013-05-07 19:14:00,59.6,59.6,29.89,NE,38,4.0,4.0,100,0.01,,---,1.05,VWS V14.01,2013-05-07 23:14:00,
2013-05-07 19:15:00,59.6,59.6,29.89,ENE,66,4.0,5.0,100,0.01,,---,1.05,VWS V14.01,2013-05-07 23:15:00,
2013-05-07 19:18:00,59.6,59.6,29.88,ENE,58,4.0,9.0,100,0.01,,---,1.05,VWS V14.01,2013-05-07 23:18:00,
2013-05-07 19:19:00,59.6,59.6,29.88,NE,55,4.0,4.0,100,0.01,,---,1.05,VWS V14.01,2013-05-07 23:19:00,
2013-05-07 19:20:00,59.6,59.6,29.88,NE,35,0.0,0.0,100,0.01,,---,1.05,VWS V14.01,2013-05-07 23:20:00,
2013-05-07 19:23:00,59.6,59.6,29.88,NE,45,4.0,4.0,100,0.01,,---,1.05,VWS V14.01,2013-05-07 23:23:00,
2013-05-07 19:24:00,59.6,59.6,29.88,NE,55,11.0,11.0,100,0.01,,---,1.05,VWS V14.01,2013-05-07 23:24:00,
2013-05-07 19:25:00,59.6,59.6,29.88,ENE,57,4.0,5.0,100,0.01,,---,1.05,VWS V14.01,2013-05-07 23:25:00,
2013-05-07 19:29:00,59.6,59.6,29.88,ENE,65,3.0,4.0,100,0.01,,---,1.05,VWS V14.01,2013-05-07 23:29:00,
2013-05-07 19:30:00,59.6,59.6,29.88,East,80,9.0,9.0,100,0.00,,---,1.05,VWS V14.01,2013-05-07 23:30:00,
2013-05-07 19:34:00,59.5,59.5,29.88,ENE,70,7.0,7.0,100,0.00,,---,1.05,VWS V14.01,2013-05-07 23:34:00,
2013-05-07 19:35:00,59.5,59.5,29.88,ENE,69,4.0,9.0,100,0.00,,---,1.05,VWS V14.01,2013-05-07 23:35:00,
2013-05-07 19:39:00,59.5,59.5,29.88,ENE,77,7.0,7.0,100,0.00,,---,1.05,VWS V14.01,2013-05-07 23:39:00,
2013-05-07 19:40:00,59.5,59.5,29.88,ENE,74,6.0,10.0,100,0.00,,---,1.05,VWS V14.01,2013-05-07 23:40:00,
2013-05-07 19:44:00,59.5,59.5,29.88,NNE,30,9.0,11.0,100,0.00,,---,1.05,VWS V14.01,2013-05-07 23:44:00,
2013-05-07 19:45:00,59.5,59.5,29.88,ENE,57,6.0,10.0,100,0.00,,---,1.05,VWS V14.01,2013-05-07 23:45:00,
2013-05-07 19:49:00,59.5,59.5,29.89,NE,55,11.0,13.0,100,0.00,,---,1.05,VWS V14.01,2013-05-07 23:49:00,
2013-05-07 19:50:00,59.5,59.5,29.89,NNE,31,10.0,14.0,100,0.00,,---,1.05,VWS V14.01,2013-05-07 23:50:00,
2013-05-07 19:54:00,59.5,59.5,29.89,East,96,7.0,10.0,100,0.00,,---,1.05,VWS V14.01,2013-05-07 23:54:00,
2013-05-07 19:55:00,59.5,59.5,29.89,ENE,65,10.0,10.0,100,0.00,,---,1.05,VWS V14.01,2013-05-07 23:55:00,
2013-05-07 19:59:00,59.5,59.5,29.89,East,84,9.0,9.0,100,0.00,,---,1.05,VWS V14.01,2013-05-07 23:59:00,
2013-05-07 20:00:00,59.5,59.5,29.89,ENE,68,10.0,11.0,100,0.00,,---,1.05,VWS V14.01,2013-05-08 00:00:00,
2013-05-07 20:01:00,59.5,59.5,29.89,ENE,59,5.0,10.0,100,0.00,,---,1.05,VWS V14.01,2013-05-08 00:01:00,
2013-05-07 20:04:00,59.5,59.5,29.89,ENE,61,2.0,7.0,100,0.00,,---,1.05,VWS V14.01,2013-05-08 00:04:00,
2013-05-07 20:05:00,59.5,59.5,29.89,East,83,5.0,7.0,100,0.00,,---,1.05,VWS V14.01,2013-05-08 00:05:00,
2013-05-07 20:06:00,59.5,59.5,29.89,NE,39,5.0,5.0,100,0.00,,---,1.05,VWS V14.01,2013-05-08 00:06:00,
2013-05-07 20:09:00,59.5,59.5,29.89,NE,42,9.0,9.0,100,0.00,,---,1.05,VWS V14.01,2013-05-08 00:09:00,
2013-05-07 20:10:00,59.5,59.5,29.89,NE,41,7.0,10.0,100,0.00,,---,1.05,VWS V14.01,2013-05-08 00:10:00,
2013-05-07 20:11:00,59.5,59.5,29.89,NE,50,12.0,15.0,100,0.00,,---,1.05,VWS V14.01,2013-05-08 00:11:00,
2013-05-07 20:14:00,59.5,59.5,29.89,ENE,63,10.0,11.0,100,0.00,,---,1.05,VWS V14.01,2013-05-08 00:14:00,
2013-05-07 20:15:00,59.5,59.5,29.89,ENE,68,4.0,7.0,100,0.00,,---,1.05,VWS V14.01,2013-05-08 00:15:00,
2013-05-07 20:16:00,59.5,59.5,29.89,ENE,69,4.0,4.0,100,0.00,,---,1.05,VWS V14.01,2013-05-08 00:16:00,
2013-05-07 20:19:00,59.5,59.5,29.89,NNE,28,4.0,8.0,100,0.00,,---,1.05,VWS V14.01,2013-05-08 00:19:00,
2013-05-07 20:20:00,59.5,59.5,29.89,ENE,71,5.0,8.0,100,0.00,,---,1.05,VWS V14.01,2013-05-08 00:20:00,
2013-05-07 20:21:00,59.5,59.5,29.89,ESE,117,4.0,6.0,100,0.00,,---,1.05,VWS V14.01,2013-05-08 00:21:00,
2013-05-07 20:24:00,59.5,59.5,29.89,ESE,112,4.0,10.0,100,0.00,,---,1.05,VWS V14.01,2013-05-08 00:24:00,
2013-05-07 20:25:00,59.5,59.5,29.89,East,100,4.0,10.0,100,0.00,,---,1.05,VWS V14.01,2013-05-08 00:25:00,
2013-05-07 20:26:00,59.5,59.5,29.89,ENE,57,6.0,10.0,100,0.00,,---,1.05,VWS V14.01,2013-05-08 00:26:00,
2013-05-07 20:29:00,59.3,59.3,29.89,ENE,59,6.0,11.0,100,0.00,,---,1.05,VWS V14.01,2013-05-08 00:29:00,
2013-05-07 20:30:00,59.3,59.3,29.89,NE,54,6.0,11.0,100,0.00,,---,1.05,VWS V14.01,2013-05-08 00:30:00,
2013-05-07 20:31:00,59.3,59.3,29.89,NE,47,3.0,12.0,100,0.00,,---,1.05,VWS V14.01,2013-05-08 00:31:00,
2013-05-07 20:34:00,59.3,59.3,29.89,East,84,11.0,12.0,100,0.00,,---,1.05,VWS V14.01,2013-05-08 00:34:00,
2013-05-07 20:35:00,59.3,59.3,29.89,ESE,102,9.0,12.0,100,0.00,,---,1.05,VWS V14.01,2013-05-08 00:35:00,
2013-05-07 20:36:00,59.3,59.3,29.89,ENE,59,8.0,10.0,100,0.00,,---,1.05,VWS V14.01,2013-05-08 00:36:00,
2013-05-07 20:40:00,59.3,59.3,29.89,ENE,57,6.0,7.0,100,0.00,,---,1.05,VWS V14.01,2013-05-08 00:40:00,
2013-05-07 20:41:00,59.3,59.3,29.89,ENE,67,4.0,7.0,100,0.00,,---,1.05,VWS V14.01,2013-05-08 00:41:00,
2013-05-07 20:45:00,59.3,59.3,29.89,East,80,7.0,14.0,100,0.00,,---,1.05,VWS V14.01,2013-05-08 00:45:00,
2013-05-07 20:46:00,59.3,59.3,29.89,East,82,3.0,5.0,100,0.00,,---,1.05,VWS V14.01,2013-05-08 00:46:00,
2013-05-07 20:50:00,59.2,59.2,29.89,ENE,59,5.0,11.0,100,0.00,,---,1.05,VWS V14.01,2013-05-08 00:50:00,
2013-05-07 20:51:00,59.2,59.2,29.89,East,84,5.0,7.0,100,0.00,,---,1.05,VWS V14.01,2013-05-08 00:51:00,
2013-05-07 20:55:00,59.2,59.2,29.89,East,82,5.0,7.0,100,0.00,,---,1.05,VWS V14.01,2013-05-08 00:55:00,
2013-05-07 20:56:00,59.2,59.2,29.89,ENE,73,5.0,8.0,100,0.00,,---,1.05,VWS V14.01,2013-05-08 00:56:00,
2013-05-07 21:00:00,59.2,59.2,29.89,ENE,67,0.0,1.0,100,0.00,,---,1.05,VWS V14.01,2013-05-08 01:00:00,
2013-05-07 21:01:00,59.0,59.0,29.89,East,82,4.0,5.0,100,0.00,,---,1.05,VWS V14.01,2013-05-08 01:01:00,
2013-05-07 21:05:00,59.0,59.0,29.89,ENE,58,5.0,6.0,100,0.00,,---,1.05,VWS V14.01,2013-05-08 01:05:00,
2013-05-07 21:06:00,59.0,59.0,29.89,East,89,8.0,8.0,100,0.00,,---,1.05,VWS V14.01,2013-05-08 01:06:00,
2013-05-07 21:10:00,59.0,59.0,29.89,ENE,59,5.0,7.0,100,0.00,,---,1.05,VWS V14.01,2013-05-08 01:10:00,
2013-05-07 21:11:00,59.0,59.0,29.89,East,80,3.0,4.0,100,0.00,,---,1.05,VWS V14.01,2013-05-08 01:11:00,
2013-05-07 21:15:00,59.0,59.0,29.89,NE,52,0.0,1.0,100,0.00,,---,1.05,VWS V14.01,2013-05-08 01:15:00,
2013-05-07 21:16:00,59.0,59.0,29.89,NE,52,0.0,2.0,100,0.00,,---,1.05,VWS V14.01,2013-05-08 01:16:00,
2013-05-07 21:20:00,59.0,59.0,29.89,ENE,64,3.0,5.0,100,0.00,,---,1.05,VWS V14.01,2013-05-08 01:20:00,
2013-05-07 21:21:00,59.0,59.0,29.89,ENE,64,2.0,2.0,100,0.00,,---,1.05,VWS V14.01,2013-05-08 01:21:00,
2013-05-07 21:22:00,59.0,59.0,29.89,ENE,64,1.0,4.0,100,0.00,,---,1.05,VWS V14.01,2013-05-08 01:22:00,
2013-05-07 21:25:00,59.0,59.0,29.89,East,79,0.0,2.0,100,0.00,,---,1.05,VWS V14.01,2013-05-08 01:25:00,
2013-05-07 21:26:00,59.0,59.0,29.89,ENE,58,3.0,5.0,100,0.00,,---,1.05,VWS V14.01,2013-05-08 01:26:00,
2013-05-07 21:27:00,59.0,59.0,29.89,ENE,57,2.0,5.0,100,0.00,,---,1.05,VWS V14.01,2013-05-08 01:27:00,
2013-05-07 21:30:00,59.0,59.0,29.89,ENE,72,7.0,7.0,100,0.00,,---,1.05,VWS V14.01,2013-05-08 01:30:00,
2013-05-07 21:31:00,59.0,59.0,29.89,ENE,71,6.0,6.0,100,0.00,,---,1.05,VWS V14.01,2013-05-08 01:31:00,
2013-05-07 21:32:00,59.0,59.0,29.89,NE,38,4.0,7.0,100,0.00,,---,1.05,VWS V14.01,2013-05-08 01:32:00,
2013-05-07 21:35:00,59.0,59.0,29.89,East,85,4.0,5.0,100,0.00,,---,1.05,VWS V14.01,2013-05-08 01:35:00,
2013-05-07 21:36:00,59.0,59.0,29.89,East,84,1.0,3.0,100,0.00,,---,1.05,VWS V14.01,2013-05-08 01:36:00,
2013-05-07 21:37:00,59.0,59.0,29.89,ENE,59,3.0,5.0,100,0.00,,---,1.05,VWS V14.01,2013-05-08 01:37:00,
2013-05-07 21:40:00,59.0,59.0,29.89,ENE,59,6.0,6.0,100,0.00,,---,1.05,VWS V14.01,2013-05-08 01:40:00,
2013-05-07 21:41:00,59.0,59.0,29.89,East,91,5.0,8.0,100,0.00,,---,1.05,VWS V14.01,2013-05-08 01:41:00,
2013-05-07 21:42:00,59.0,59.0,29.89,East,84,6.0,6.0,100,0.00,,---,1.05,VWS V14.01,2013-05-08 01:42:00,
2013-05-07 21:45:00,59.0,59.0,29.89,East,100,5.0,5.0,100,0.00,,---,1.05,VWS V14.01,2013-05-08 01:45:00,
2013-05-07 21:46:00,59.0,59.0,29.89,ENE,75,3.0,4.0,100,0.00,,---,1.05,VWS V14.01,2013-05-08 01:46:00,
2013-05-07 21:47:00,59.0,59.0,29.90,East,90,2.0,2.0,100,0.00,,---,1.05,VWS V14.01,2013-05-08 01:47:00,
2013-05-07 21:50:00,59.0,59.0,29.90,ENE,77,3.0,3.0,100,0.01,,---,1.06,VWS V14.01,2013-05-08 01:50:00,
2013-05-07 21:51:00,59.0,59.0,29.90,ENE,78,3.0,3.0,100,0.01,,---,1.06,VWS V14.01,2013-05-08 01:51:00,
2013-05-07 21:52:00,59.0,59.0,29.90,ENE,78,4.0,4.0,100,0.01,,---,1.06,VWS V14.01,2013-05-08 01:52:00,
2013-05-07 21:55:00,59.0,59.0,29.90,East,94,4.0,7.0,100,0.02,,---,1.07,VWS V14.01,2013-05-08 01:55:00,
2013-05-07 21:56:00,59.0,59.0,29.90,East,97,6.0,7.0,100,0.02,,---,1.07,VWS V14.01,2013-05-08 01:56:00,
2013-05-07 21:57:00,59.0,59.0,29.90,East,101,4.0,4.0,100,0.02,,---,1.07,VWS V14.01,2013-05-08 01:57:00,
2013-05-07 22:00:00,58.9,58.9,29.90,East,98,5.0,9.0,100,0.03,,---,1.08,VWS V14.01,2013-05-08 02:00:00,
2013-05-07 22:01:00,58.9,58.9,29.90,East,82,4.0,9.0,100,0.03,,---,1.08,VWS V14.01,2013-05-08 02:01:00,
2013-05-07 22:02:00,58.9,58.9,29.90,East,85,2.0,3.0,100,0.03,,---,1.08,VWS V14.01,2013-05-08 02:02:00,
2013-05-07 22:05:00,58.9,58.9,29.90,ENE,77,4.0,7.0,100,0.04,,---,1.09,VWS V14.01,2013-05-08 02:05:00,
2013-05-07 22:06:00,58.9,58.9,29.90,East,80,1.0,7.0,100,0.04,,---,1.09,VWS V14.01,2013-05-08 02:06:00,
2013-05-07 22:07:00,58.9,58.9,29.90,East,79,5.0,6.0,100,0.05,,---,1.10,VWS V14.01,2013-05-08 02:07:00,
2013-05-07 22:10:00,58.9,58.9,29.90,ENE,58,6.0,12.0,100,0.05,,---,1.10,VWS V14.01,2013-05-08 02:10:00,
2013-05-07 22:11:00,58.9,58.9,29.90,NE,52,6.0,12.0,100,0.05,,---,1.10,VWS V14.01,2013-05-08 02:11:00,
2013-05-07 22:12:00,58.9,58.9,29.90,ENE,69,10.0,12.0,100,0.05,,---,1.10,VWS V14.01,2013-05-08 02:12:00,
2013-05-07 22:16:00,58.9,58.9,29.90,East,93,4.0,5.0,100,0.06,,---,1.11,VWS V14.01,2013-05-08 02:16:00,
2013-05-07 22:17:00,58.9,58.9,29.89,ESE,108,3.0,5.0,100,0.06,,---,1.11,VWS V14.01,2013-05-08 02:17:00,
2013-05-07 22:21:00,58.9,58.9,29.89,ESE,114,5.0,6.0,100,0.07,,---,1.12,VWS V14.01,2013-05-08 02:21:00,
2013-05-07 22:22:00,58.9,58.9,29.89,East,82,3.0,6.0,100,0.07,,---,1.12,VWS V14.01,2013-05-08 02:22:00,
2013-05-07 22:26:00,58.9,58.9,29.89,East,92,6.0,10.0,100,0.07,,---,1.12,VWS V14.01,2013-05-08 02:26:00,
2013-05-07 22:27:00,58.9,58.9,29.89,East,87,2.0,6.0,100,0.07,,---,1.12,VWS V14.01,2013-05-08 02:27:00,
2013-05-07 22:31:00,58.9,58.9,29.89,ESE,105,3.0,3.0,100,0.07,,---,1.12,VWS V14.01,2013-05-08 02:31:00,
2013-05-07 22:32:00,58.9,58.9,29.89,ENE,65,3.0,5.0,100,0.08,,---,1.13,VWS V14.01,2013-05-08 02:32:00,
2013-05-07 22:36:00,58.9,58.9,29.90,East,98,0.0,0.0,100,0.09,,---,1.14,VWS V14.01,2013-05-08 02:36:00,
2013-05-07 22:39:00,58.9,58.9,29.90,ESE,113,1.0,5.0,100,0.10,,---,1.15,VWS V14.01,2013-05-08 02:39:00,
2013-05-07 22:41:00,58.9,58.9,29.90,SE,134,4.0,7.0,100,0.11,,---,1.16,VWS V14.01,2013-05-08 02:41:00,
2013-05-07 22:44:00,58.9,58.9,29.90,SSE,163,3.0,9.0,100,0.11,,---,1.16,VWS V14.01,2013-05-08 02:44:00,
2013-05-07 22:46:00,58.9,58.9,29.90,SSW,204,15.0,15.0,100,0.11,,---,1.16,VWS V14.01,2013-05-08 02:46:00,
2013-05-07 22:47:00,58.9,58.9,29.90,SW,221,9.0,15.0,100,0.11,,---,1.16,VWS V14.01,2013-05-08 02:47:00,
2013-05-07 22:49:00,58.6,58.6,29.90,SW,223,1.0,7.0,100,0.11,,---,1.16,VWS V14.01,2013-05-08 02:49:00,
2013-05-07 22:51:00,58.4,58.4,29.90,South,182,5.0,6.0,100,0.10,,---,1.16,VWS V14.01,2013-05-08 02:51:00,
2013-05-07 22:52:00,58.4,58.4,29.90,South,184,6.0,6.0,100,0.10,,---,1.16,VWS V14.01,2013-05-08 02:52:00,
2013-05-07 22:54:00,58.0,58.0,29.90,SSW,213,7.0,7.0,100,0.10,,---,1.16,VWS V14.01,2013-05-08 02:54:00,
2013-05-07 22:56:00,57.6,57.6,29.90,SSW,208,3.0,6.0,100,0.09,,---,1.16,VWS V14.01,2013-05-08 02:56:00,
2013-05-07 22:57:00,57.5,57.5,29.90,SSW,208,3.0,4.0,100,0.09,,---,1.16,VWS V14.01,2013-05-08 02:57:00,
2013-05-07 22:59:00,57.3,57.3,29.90,SSW,198,4.0,4.0,100,0.09,,---,1.16,VWS V14.01,2013-05-08 02:59:00,
2013-05-07 23:02:00,57.0,57.0,29.90,SSW,198,0.0,0.0,100,0.08,,---,1.16,VWS V14.01,2013-05-08 03:02:00,
2013-05-07 23:04:00,56.7,56.7,29.90,SSW,196,0.0,0.0,100,0.09,,---,1.17,VWS V14.01,2013-05-08 03:04:00,
2013-05-07 23:07:00,56.5,56.5,29.90,SSW,196,0.0,0.0,100,0.07,,---,1.17,VWS V14.01,2013-05-08 03:07:00,
2013-05-07 23:09:00,56.5,56.5,29.90,SW,217,1.0,2.0,100,0.07,,---,1.17,VWS V14.01,2013-05-08 03:09:00,
2013-05-07 23:12:00,56.2,56.2,29.90,SW,217,2.0,3.0,100,0.07,,---,1.17,VWS V14.01,2013-05-08 03:12:00,
2013-05-07 23:14:00,56.0,56.0,29.90,SW,215,0.0,0.0,100,0.07,,---,1.17,VWS V14.01,2013-05-08 03:14:00,
2013-05-07 23:17:00,55.9,55.9,29.89,SW,215,2.0,3.0,100,0.06,,---,1.17,VWS V14.01,2013-05-08 03:17:00,
2013-05-07 23:19:00,55.7,55.7,29.89,SW,216,1.0,3.0,100,0.05,,---,1.17,VWS V14.01,2013-05-08 03:19:00,
2013-05-07 23:20:00,55.7,55.7,29.89,SW,215,0.0,3.0,100,0.05,,---,1.17,VWS V14.01,2013-05-08 03:20:00,
2013-05-07 23:22:00,55.7,55.7,29.89,SW,215,4.0,4.0,100,0.05,,---,1.17,VWS V14.01,2013-05-08 03:22:00,
2013-05-07 23:24:00,55.6,55.6,29.89,SW,215,0.0,0.0,100,0.05,,---,1.17,VWS V14.01,2013-05-08 03:24:00,
2013-05-07 23:25:00,55.6,55.6,29.89,SW,215,0.0,0.0,100,0.05,,---,1.17,VWS V14.01,2013-05-08 03:25:00,
2013-05-07 23:27:00,55.6,55.6,29.89,SW,215,0.0,0.0,100,0.07,,---,1.19,VWS V14.01,2013-05-08 03:27:00,
2013-05-07 23:29:00,55.4,55.4,29.89,SW,215,3.0,4.0,100,0.10,,---,1.22,VWS V14.01,2013-05-08 03:29:00,
2013-05-07 23:30:00,55.4,55.4,29.89,SW,215,5.0,6.0,100,0.11,,---,1.23,VWS V14.01,2013-05-08 03:30:00,
2013-05-07 23:32:00,55.3,55.3,29.90,SW,219,4.0,4.0,100,0.13,,---,1.26,VWS V14.01,2013-05-08 03:32:00,
2013-05-07 23:34:00,55.1,55.1,29.90,SW,219,0.0,0.0,100,0.14,,---,1.28,VWS V14.01,2013-05-08 03:34:00,
2013-05-07 23:35:00,55.1,55.1,29.90,SW,219,1.0,1.0,100,0.15,,---,1.29,VWS V14.01,2013-05-08 03:35:00,
2013-05-07 23:37:00,55.0,55.0,29.90,SSE,151,5.0,7.0,100,0.16,,---,1.31,VWS V14.01,2013-05-08 03:37:00,
2013-05-07 23:39:00,54.8,54.8,29.90,South,171,6.0,6.0,100,0.18,,---,1.33,VWS V14.01,2013-05-08 03:39:00,
2013-05-07 23:40:00,54.8,54.8,29.90,SSW,198,4.0,9.0,100,0.22,,---,1.37,VWS V14.01,2013-05-08 03:40:00,
2013-05-07 23:42:00,54.7,54.7,29.90,SE,142,5.0,12.0,100,0.25,,---,1.41,VWS V14.01,2013-05-08 03:42:00,
2013-05-07 23:43:00,54.7,54.7,29.90,SE,135,13.0,13.0,100,0.26,,---,1.42,VWS V14.01,2013-05-08 03:43:00,
2013-05-07 23:44:00,54.5,54.5,29.90,SE,135,9.0,9.0,100,0.27,,---,1.43,VWS V14.01,2013-05-08 03:44:00,
2013-05-07 23:45:00,54.5,54.5,29.90,SSE,163,6.0,11.0,100,0.29,,---,1.45,VWS V14.01,2013-05-08 03:45:00,
2013-05-07 23:47:00,54.4,54.4,29.93,South,180,5.0,9.0,100,0.32,,---,1.48,VWS V14.01,2013-05-08 03:47:00,
2013-05-07 23:48:00,54.4,54.4,29.93,South,181,3.0,9.0,100,0.32,,---,1.48,VWS V14.01,2013-05-08 03:48:00,
2013-05-07 23:49:00,54.2,54.2,29.93,SSE,167,5.0,6.0,100,0.34,,---,1.50,VWS V14.01,2013-05-08 03:49:00,
2013-05-07 23:50:00,54.2,54.2,29.93,South,171,5.0,11.0,100,0.35,,---,1.51,VWS V14.01,2013-05-08 03:50:00,
2013-05-07 23:52:00,54.2,54.2,29.93,SW,225,9.0,16.0,100,0.36,,---,1.52,VWS V14.01,2013-05-08 03:52:00,
2013-05-07 23:53:00,54.1,54.1,29.93,SSW,198,6.0,6.0,100,0.36,,---,1.52,VWS V14.01,2013-05-08 03:53:00,
2013-05-07 23:54:00,54.1,54.1,29.93,SSW,202,7.0,7.0,100,0.36,,---,1.52,VWS V14.01,2013-05-08 03:54:00,
2013-05-07 23:55:00,54.1,54.1,29.93,SSW,211,6.0,9.0,100,0.36,,---,1.52,VWS V14.01,2013-05-08 03:55:00,
2013-05-07 23:58:00,54.1,54.1,29.93,SW,222,7.0,10.0,100,0.37,,---,1.53,VWS V14.01,2013-05-08 03:58:00,
2013-05-07 23:59:00,54.1,54.1,29.93,SW,219,4.0,5.0,100,0.38,,---,1.54,VWS V14.01,2013-05-08 03:59:00,